• In Austria
  • List of Countries
  • For 7 days
  • Water Temperature
  • Satellite Maps
  • Weather Map
  • News
  • Weather Widgets
  • user-avatar
    Login

    Hourly Weather Hobart

    Today, 12 December, Tuesday

    Time Temperature Precipitation Wind Pressure Humidity
    00:00 +12°C° 0 mm 1 mps 749 mmHg 97%
    01:00 +12°C° 0 mm 2 mps 749 mmHg 98%
    02:00 +12°C° 0 mm 2 mps 749 mmHg 97%
    03:00 +12°C° 0 mm 2 mps 749 mmHg 97%
    04:00 +12°C° 0 mm 2 mps 748 mmHg 97%
    05:00 +13°C° 0 mm 2 mps 748 mmHg 89%
    06:00 +15°C° 0 mm 2 mps 748 mmHg 82%
    07:00 +16°C° 0 mm 2 mps 748 mmHg 74%
    08:00 +19°C° 0 mm 2 mps 748 mmHg 63%
    09:00 +23°C° 0 mm 1 mps 748 mmHg 52%
    10:00 +24°C° 0 mm 1 mps 748 mmHg 44%
    11:00 +26°C° 0 mm 2 mps 748 mmHg 40%
    12:00 +27°C° 0 mm 3 mps 748 mmHg 36%
    13:00 +28°C° 0 mm 3 mps 748 mmHg 33%
    14:00 +28°C° 0 mm 3 mps 748 mmHg 34%
    15:00 +27°C° 0 mm 3 mps 747 mmHg 35%
    16:00 +25°C° 0 mm 3 mps 747 mmHg 39%
    17:00 +22°C° 0 mm 3 mps 747 mmHg 48%
    18:00 +21°C° 0 mm 2 mps 747 mmHg 56%
    19:00 +19°C° 0 mm 2 mps 748 mmHg 65%
    20:00 +17°C° 0 mm 2 mps 747 mmHg 72%
    21:00 +15°C° 0 mm 2 mps 747 mmHg 80%
    22:00 +14°C° 0 mm 2 mps 747 mmHg 91%
    23:00 +14°C° 0 mm 2 mps 747 mmHg 92%

    Tomorrow, 13 December, Wednesday

    Time Temperature Precipitation Wind Pressure Humidity
    00:00 +13°C° 0 mm 2 mps 747 mmHg 93%
    01:00 +12°C° 0 mm 3 mps 746 mmHg 94%
    02:00 +12°C° 0 mm 3 mps 746 mmHg 95%
    03:00 +12°C° 0 mm 3 mps 745 mmHg 95%
    04:00 +12°C° 0 mm 3 mps 745 mmHg 96%
    05:00 +14°C° 0 mm 3 mps 745 mmHg 85%
    06:00 +17°C° 0 mm 3 mps 744 mmHg 74%
    07:00 +19°C° 0 mm 3 mps 744 mmHg 64%
    08:00 +22°C° 0 mm 3 mps 744 mmHg 52%
    09:00 +25°C° 0 mm 3 mps 743 mmHg 40%
    10:00 +28°C° 0 mm 3 mps 743 mmHg 28%
    11:00 +29°C° 0 mm 3 mps 743 mmHg 25%
    12:00 +31°C° 0 mm 3 mps 742 mmHg 22%
    13:00 +33°C° 0 mm 3 mps 742 mmHg 19%
    14:00 +33°C° 0 mm 3 mps 741 mmHg 21%
    15:00 +33°C° 0 mm 3 mps 740 mmHg 24%
    16:00 +31°C° 0 mm 3 mps 740 mmHg 26%
    17:00 +29°C° 0 mm 3 mps 740 mmHg 33%
    18:00 +27°C° 0 mm 3 mps 739 mmHg 40%
    19:00 +25°C° 0 mm 3 mps 739 mmHg 47%
    20:00 +24°C° 0 mm 3 mps 739 mmHg 50%
    21:00 +23°C° 0 mm 2 mps 739 mmHg 53%
    22:00 +21°C° 0 mm 2 mps 738 mmHg 56%
    23:00 +21°C° 0 mm 3 mps 738 mmHg 56%

    Day after tomorrow, 14 December, Thursday

    Time Temperature Precipitation Wind Pressure Humidity
    00:00 +20°C° 0 mm 3 mps 738 mmHg 56%
    01:00 +20°C° 0 mm 3 mps 737 mmHg 55%
    02:00 +20°C° 0.1 mm 3 mps 737 mmHg 59%
    03:00 +20°C° 0.1 mm 3 mps 736 mmHg 63%
    04:00 +19°C° 0.1 mm 3 mps 736 mmHg 67%
    05:00 +19°C° 0.2 mm 3 mps 736 mmHg 71%
    06:00 +20°C° 0.2 mm 2 mps 736 mmHg 76%
    07:00 +20°C° 0.2 mm 2 mps 736 mmHg 80%
    08:00 +20°C° 0.1 mm 2 mps 736 mmHg 78%
    09:00 +20°C° 0.1 mm 3 mps 736 mmHg 76%
    10:00 +20°C° 0.1 mm 3 mps 736 mmHg 73%
    11:00 +20°C° 0.1 mm 4 mps 736 mmHg 68%
    12:00 +19°C° 0.1 mm 5 mps 736 mmHg 64%
    13:00 +19°C° 0.1 mm 6 mps 737 mmHg 59%
    14:00 +19°C° 0 mm 6 mps 737 mmHg 55%
    15:00 +18°C° 0 mm 7 mps 737 mmHg 51%
    16:00 +18°C° 0 mm 7 mps 738 mmHg 47%
    17:00 +16°C° 0 mm 7 mps 738 mmHg 54%
    18:00 +15°C° 0 mm 6 mps 739 mmHg 61%
    19:00 +14°C° 0 mm 6 mps 740 mmHg 68%
    20:00 +13°C° 0.1 mm 5 mps 741 mmHg 72%
    21:00 +12°C° 0.1 mm 5 mps 742 mmHg 76%
    22:00 +11°C° 0.1 mm 4 mps 743 mmHg 81%
    23:00 +10°C° 0 mm 4 mps 743 mmHg 82%

    15 December, Friday

    Time Temperature Precipitation Wind Pressure Humidity
    00:00 +9°C° 0 mm 3 mps 743 mmHg 84%
    01:00 +8°C° 0 mm 3 mps 744 mmHg 85%
    02:00 +8°C° 0 mm 3 mps 744 mmHg 86%
    03:00 +7°C° 0 mm 2 mps 744 mmHg 87%
    04:00 +7°C° 0 mm 2 mps 744 mmHg 88%
    05:00 +9°C° 0 mm 2 mps 745 mmHg 79%
    06:00 +10°C° 0 mm 2 mps 745 mmHg 70%
    07:00 +13°C° 0 mm 2 mps 745 mmHg 61%
    08:00 +15°C° 0 mm 2 mps 745 mmHg 53%
    09:00 +18°C° 0 mm 2 mps 745 mmHg 45%
    10:00 +20°C° 0 mm 2 mps 744 mmHg 38%
    11:00 +22°C° 0 mm 3 mps 744 mmHg 33%
    12:00 +25°C° 0 mm 4 mps 744 mmHg 29%
    13:00 +26°C° 0 mm 4 mps 743 mmHg 24%
    14:00 +26°C° 0 mm 4 mps 743 mmHg 26%
    15:00 +26°C° 0 mm 4 mps 743 mmHg 28%
    16:00 +26°C° 0 mm 4 mps 742 mmHg 30%
    17:00 +23°C° 0 mm 4 mps 742 mmHg 39%
    18:00 +21°C° 0 mm 3 mps 743 mmHg 48%
    19:00 +19°C° 0 mm 3 mps 743 mmHg 57%
    20:00 +16°C° 0 mm 2 mps 743 mmHg 66%
    21:00 +14°C° 0 mm 2 mps 744 mmHg 76%
    22:00 +12°C° 0 mm 2 mps 744 mmHg 85%
    23:00 +12°C° 0 mm 2 mps 744 mmHg 88%

    16 December, Saturday

    Time Temperature Precipitation Wind Pressure Humidity
    00:00 +10°C° 0 mm 2 mps 743 mmHg 90%
    01:00 +10°C° 0 mm 2 mps 743 mmHg 93%
    02:00 +10°C° 0 mm 2 mps 743 mmHg 91%
    03:00 +10°C° 0 mm 2 mps 743 mmHg 88%
    04:00 +11°C° 0 mm 3 mps 743 mmHg 86%
    05:00 +12°C° 0 mm 3 mps 744 mmHg 79%
    06:00 +14°C° 0 mm 4 mps 744 mmHg 72%
    07:00 +17°C° 0 mm 4 mps 744 mmHg 65%
    08:00 +18°C° 0 mm 4 mps 744 mmHg 62%
    09:00 +19°C° 0 mm 5 mps 745 mmHg 59%
    10:00 +20°C° 0 mm 5 mps 745 mmHg 56%
    11:00 +20°C° 0 mm 5 mps 745 mmHg 58%
    12:00 +20°C° 0 mm 4 mps 745 mmHg 59%
    13:00 +20°C° 0 mm 4 mps 745 mmHg 61%
    14:00 +20°C° 0.1 mm 4 mps 746 mmHg 62%
    15:00 +20°C° 0.1 mm 4 mps 746 mmHg 64%
    16:00 +19°C° 0.1 mm 4 mps 746 mmHg 66%
    17:00 +19°C° 0 mm 3 mps 747 mmHg 68%
    18:00 +18°C° 0 mm 3 mps 747 mmHg 70%
    19:00 +17°C° 0 mm 3 mps 748 mmHg 72%
    20:00 +15°C° 0 mm 2 mps 748 mmHg 80%
    21:00 +13°C° 0 mm 2 mps 749 mmHg 88%
    22:00 +12°C° 0 mm 1 mps 749 mmHg 96%
    23:00 +11°C° 0 mm 1 mps 749 mmHg 97%

    17 December, Sunday

    Time Temperature Precipitation Wind Pressure Humidity
    00:00 +11°C° 0 mm 1 mps 749 mmHg 97%
    01:00 +11°C° 0 mm 1 mps 749 mmHg 97%
    02:00 +11°C° 0 mm 1 mps 749 mmHg 97%
    03:00 +11°C° 0 mm 1 mps 750 mmHg 97%
    04:00 +11°C° 0 mm 1 mps 750 mmHg 97%
    05:00 +12°C° 0 mm 1 mps 750 mmHg 92%
    06:00 +13°C° 0 mm 1 mps 750 mmHg 87%
    07:00 +14°C° 0 mm 1 mps 751 mmHg 82%
    08:00 +15°C° 0 mm 1 mps 751 mmHg 78%
    09:00 +16°C° 0 mm 1 mps 751 mmHg 74%
    10:00 +17°C° 0 mm 2 mps 751 mmHg 70%
    11:00 +18°C° 0 mm 2 mps 751 mmHg 64%
    12:00 +20°C° 0 mm 2 mps 750 mmHg 59%
    13:00 +21°C° 0 mm 3 mps 750 mmHg 54%
    14:00 +20°C° 0 mm 3 mps 750 mmHg 56%
    15:00 +20°C° 0 mm 3 mps 750 mmHg 59%
    16:00 +19°C° 0 mm 3 mps 750 mmHg 62%
    17:00 +18°C° 0 mm 3 mps 750 mmHg 66%
    18:00 +17°C° 0 mm 3 mps 750 mmHg 71%
    19:00 +16°C° 0 mm 3 mps 750 mmHg 75%
    20:00 +14°C° 0 mm 3 mps 750 mmHg 81%
    21:00 +13°C° 0 mm 3 mps 750 mmHg 86%
    22:00 +12°C° 0 mm 3 mps 750 mmHg 92%
    23:00 +14°C° 0 mm 2 mps 750 mmHg 92%
    Show more